This is the latest recevied weather packets stored in our database for station/object IW3HBX-3. If no packets are shown the sender has not sent any weather packets the latest 10 day(s).
| Time | Temp. | Humidity | Pressure | Rain* | Wind** | Luminosity | Snow |
|---|---|---|---|---|---|---|---|
| 1777825410 | 23.33° C | 46% | 1017 hPa | 0 mm | - | 250 W/m² | - |
| 1777825147 | 23.33° C | 46% | 1017 hPa | 0 mm | - | 250 W/m² | - |
| 1777824847 | 23.33° C | 46% | 1017 hPa | 0 mm | - | 248 W/m² | - |
| 1777824547 | 23.33° C | 47% | 1017 hPa | 0 mm | - | 202 W/m² | - |
| 1777824247 | 23.33° C | 47% | 1017 hPa | 0 mm | - | 197 W/m² | - |
| 1777823948 | 22.78° C | 46% | 1017 hPa | 0 mm | - | 206 W/m² | - |
| 1777823348 | 22.78° C | 44% | 1017 hPa | 0 mm | - | 196 W/m² | - |
| 1777823048 | 22.78° C | 45% | 1017.1 hPa | 0 mm | - | 188 W/m² | - |
| 1777822749 | 22.78° C | 46% | 1017.1 hPa | 0 mm | - | 185 W/m² | - |
| 1777822449 | 23.33° C | 42% | 1017.2 hPa | 0 mm | - | 178 W/m² | - |
| 1777822149 | 23.33° C | 44% | 1017.2 hPa | 0 mm | - | 176 W/m² | - |
| 1777821850 | 23.33° C | 44% | 1017.3 hPa | 0 mm | - | 187 W/m² | - |
| 1777821550 | 23.33° C | 44% | 1017.3 hPa | 0 mm | - | 187 W/m² | - |
| 1777821250 | 23.89° C | 44% | 1017.3 hPa | 0 mm | - | 183 W/m² | - |
| 1777820950 | 23.89° C | 44% | 1017.3 hPa | 0 mm | - | 203 W/m² | - |
| 1777820650 | 23.89° C | 43% | 1017.4 hPa | 0 mm | - | 246 W/m² | - |
| 1777820351 | 23.89° C | 43% | 1017.3 hPa | 0 mm | - | 286 W/m² | - |
| 1777820051 | 23.89° C | 42% | 1017.3 hPa | 0 mm | - | 342 W/m² | - |
| 1777819751 | 24.44° C | 42% | 1017.3 hPa | 0 mm | - | 325 W/m² | - |
| 1777819451 | 25° C | 41% | 1017.3 hPa | 0 mm | - | 309 W/m² | - |
| 1777819152 | 25° C | 40% | 1017.4 hPa | 0 mm | - | 371 W/m² | - |
| 1777818852 | 24.44° C | 41% | 1017.4 hPa | 0 mm | - | 469 W/m² | - |
| 1777818552 | 25° C | 40% | 1017.5 hPa | 0 mm | - | 517 W/m² | - |
| 1777818252 | 25° C | 42% | 1017.6 hPa | 0 mm | - | 527 W/m² | - |
| 1777817953 | 25° C | 41% | 1017.6 hPa | 0 mm | - | 566 W/m² | - |
* Rain latest hour (hover to see other rain measurements)
** Current wind speed in m/s (hover to see current wind gust speed)